Location: ??? ???
(33.4974°N, 35.4618°E)
Time: 11:20:28
(UTC+00:00)

Cosmos 1300 - Pass Details

Date: 29 October 2020
Orbit: 511 x 513 km, 82.5° (Epoch: 26 November)

Event Time Altitude Azimuth Distance (km) Brightness Sun altitude
Rises 15:26:09 0° 201° (SSW) 2,612 6.8 -8.4°
Reaches altitude 10° 15:28:22 10° 209° (SSW) 1,730 6.0 -8.9°
Maximum altitude 15:31:56 39° 279° (W) 785 4.3 -9.6°
Drops below altitude 10° 15:35:32 10° 350° (N) 1,742 5.4 -10.3°
Sets 15:37:46 0° 358° (N) 2,633 6.2 -10.8°
